Weather History for KIPT - June, 2012

Change the Weather History Date:

Tuesday, June 5, 2012

  Actual Average Record
Temperature  
Mean Temperature 60 °F 66 °F  
Max Temperature 67 °F 77 °F 104 °F (1925)
Min Temperature 52 °F 55 °F 39 °F (1964)
Degree Days  
Heating Degree Days 5 2  
Month to date heating degree days 18 14  
Since 1 June heating degree days 18 14  
Since 1 July heating degree days 4781 5972  
Cooling Degree Days 0 3  
Month to date cooling degree days 0 15  
Year to date cooling degree days 108 58  
Since 1 June cooling degree days 0 15  
Growing Degree Days 9 (Base 50)    
Moisture  
Dew Point 49 °F    
Average Humidity 68    
Maximum Humidity 93    
Minimum Humidity 42    
Precipitation  
Precipitation 0.05 in 0.13 in 2.75 in (1982)
Month to date precipitation 1.82 0.62  
Year to date precipitation 13.66 15.53  
Sea Level Pressure  
Sea Level Pressure 29.89 in    
Wind  
Wind Speed 3 mph (NNE)    
Max Wind Speed 13 mph    
Max Gust Speed 17 mph    
Visibility 9 miles    
Events Rain    
T = Trace of Precipitation, MM = Missing Value Source: NWS Daily Summary

Daily Weather History Graph

Daily Weather History Graph

Search for Another Location

Airport or City:

Trip Planner

Search our weather history database for the weather conditions in past years. The results will help you decide how hot, cold, wet, or windy it might be!

Date:

Astronomy

Jun. 05, 2012 Rise Set
Actual Time 5:35 AM EDT 8:37 PM EDT
Civil Twilight 5:02 AM EDT 9:10 PM EDT
Nautical Twilight 4:19 AM EDT 9:53 PM EDT
Astronomical Twilight 3:29 AM EDT 10:43 PM EDT
Moon 10:00 PM EDT (6/5) 6:45 AM EDT (6/5)
Length of Visible Light 16h 08m
Length of Day
15h 02m
Full, 98% of the Moon is Illuminated
Jun 5
Full
Jun 11
Last Quarter
Jun 19
New
Jun 26
First Quarter
Jul 3
Full

Hourly Weather History & Observations

Time (EDT) Temp. Dew Point Humidity Pressure Visibility Wind Dir Wind Speed Gust Speed Precip Events Conditions
12:54 AM 54.0 °F 52.0 °F 93% 29.83 in 5.0 mi Calm Calm - 0.03 in Rain Light Rain
1:15 AM 53.6 °F 51.8 °F 94% 29.82 in 2.5 mi Calm Calm - 0.02 in Rain Light Rain
1:22 AM 53.6 °F 51.8 °F 94% 29.82 in 7.0 mi WSW 4.6 mph - 0.02 in Rain Light Rain
1:54 AM 54.0 °F 51.1 °F 90% 29.83 in 10.0 mi Calm Calm - 0.02 in   Overcast
2:52 AM 53.6 °F 51.8 °F 94% 29.84 in 10.0 mi Calm Calm - N/A   Overcast
2:54 AM 54.0 °F 51.1 °F 90% 29.83 in 9.0 mi East 5.8 mph - N/A   Overcast
3:05 AM 53.6 °F 50.0 °F 88% 29.84 in 2.5 mi ESE 4.6 mph - 0.03 in Rain Light Rain
3:13 AM 53.6 °F 50.0 °F 88% 29.84 in 7.0 mi East 4.6 mph - 0.03 in Rain Light Rain
3:54 AM 53.1 °F 48.9 °F 86% 29.84 in 10.0 mi East 4.6 mph - 0.03 in   Overcast
4:32 AM 53.6 °F 48.2 °F 82% 29.85 in 10.0 mi North 3.5 mph - N/A   Overcast
4:54 AM 53.1 °F 48.9 °F 86% 29.85 in 10.0 mi NNE 3.5 mph - N/A   Overcast
5:54 AM 53.1 °F 50.0 °F 89% 29.87 in 10.0 mi Calm Calm - N/A   Overcast
6:14 AM 53.6 °F 51.8 °F 94% 29.88 in 10.0 mi Calm Calm - N/A   Overcast
6:54 AM 53.1 °F 50.0 °F 89% 29.89 in 10.0 mi Calm Calm - N/A   Partly Cloudy
7:54 AM 55.0 °F 48.9 °F 80% 29.92 in 10.0 mi Calm Calm - N/A   Overcast
8:54 AM 57.2 °F 48.2 °F 72% 29.93 in 10.0 mi Calm Calm - N/A   Mostly Cloudy
9:54 AM 59.0 °F 46.0 °F 62% 29.92 in 10.0 mi Variable 4.6 mph - N/A   Overcast
10:54 AM 60.1 °F 46.9 °F 62% 29.93 in 10.0 mi WNW 4.6 mph - N/A   Overcast
11:54 AM 61.0 °F 46.9 °F 60% 29.94 in 10.0 mi WNW 6.9 mph - N/A   Overcast
12:54 PM 63.0 °F 46.9 °F 56% 29.93 in 10.0 mi WNW 3.5 mph - N/A   Mostly Cloudy
1:54 PM 62.1 °F 44.1 °F 52% 29.93 in 10.0 mi North 5.8 mph - N/A   Overcast
2:54 PM 66.0 °F 43.0 °F 43% 29.91 in 10.0 mi North 6.9 mph - N/A   Overcast
3:54 PM 64.0 °F 44.1 °F 48% 29.91 in 10.0 mi North 9.2 mph - N/A   Overcast
4:54 PM 64.9 °F 45.0 °F 48% 29.91 in 10.0 mi North 5.8 mph - N/A   Overcast
5:54 PM 64.9 °F 46.0 °F 50% 29.90 in 10.0 mi North 4.6 mph - N/A   Overcast
6:54 PM 64.9 °F 46.0 °F 50% 29.91 in 10.0 mi NE 4.6 mph - N/A   Overcast
7:54 PM 63.0 °F 46.9 °F 56% 29.93 in 10.0 mi ENE 4.6 mph - N/A   Overcast
8:54 PM 60.1 °F 53.1 °F 78% 29.94 in 10.0 mi Calm Calm - 0.00 in   Overcast
9:54 PM 57.9 °F 52.0 °F 81% 29.95 in 10.0 mi Calm Calm - N/A   Overcast
10:54 PM 57.0 °F 51.1 °F 81% 29.96 in 10.0 mi North 3.5 mph - N/A   Overcast
11:54 PM 55.9 °F 50.0 °F 80% 29.96 in 10.0 mi North 3.5 mph - N/A   Scattered Clouds